Weather History for Siemreap, Cambodia

Change the Weather History Date:

Wednesday, December 4, 2013

  Actual Average Record
Temperature  
Mean Temperature 76 °F -  
Max Temperature 84 °F - - ()
Min Temperature 68 °F - - ()
Cooling Degree Days 11    
Growing Degree Days 26 (Base 50)    
Moisture  
Dew Point 67 °F    
Average Humidity 68    
Maximum Humidity 89    
Minimum Humidity 51    
Precipitation  
Precipitation 0.00 in - - ()
Sea Level Pressure  
Sea Level Pressure 29.85 in    
Wind  
Wind Speed 3 mph ()    
Max Wind Speed 7 mph    
Max Gust Speed 20 mph    
Visibility 5.9 miles    
Events      
T = Trace of Precipitation, MM = Missing Value Source: Averaged Metar Reports

Daily Weather History Graph

Daily Weather History Graph

Search for Another Location

Airport:

Trip Planner

Search our weather history database for the weather conditions in past years. The results will help you decide how hot, cold, wet, or windy it might be!

Date:

Astronomy

Dec. 04, 2013 Rise Set
Actual Time 6:13 AM ICT 5:36 PM ICT
Civil Twilight 5:50 AM ICT 5:59 PM ICT
Nautical Twilight 5:23 AM ICT 6:25 PM ICT
Astronomical Twilight 4:57 AM ICT 6:51 PM ICT
Moon 7:14 AM ICT (12/4) 7:04 PM ICT (12/4)
Length of Visible Light 12h 08m
Length of Day
11h 22m
New Moon, 2% of the Moon is Illuminated
Dec 4
New Moon
Dec 9
First Quarter
Dec 17
Full
Dec 25
Last Quarter
Jan 1
New

Hourly Weather History & Observations

Time (ICT) Temp. Heat Index Dew Point Humidity Pressure Visibility Wind Dir Wind Speed Gust Speed Precip Events Conditions
12:00 AM 71.6 °F - 66.2 °F 83% 29.89 in 5.6 mi North 4.6 mph - N/A   Unknown
12:30 AM 71.6 °F - 66.2 °F 83% 29.89 in 5.6 mi North 4.6 mph - N/A   Unknown
7:00 AM 68.0 °F - 64.4 °F 88% 29.89 in 5.6 mi WNW 2.3 mph - N/A   Partly Cloudy
7:30 AM 69.8 °F - 64.4 °F 83% 29.89 in 5.6 mi NW 3.5 mph - N/A   Partly Cloudy
8:00 AM 71.6 °F - 64.4 °F 78% 29.92 in 5.6 mi Variable 3.5 mph - N/A   Partly Cloudy
8:30 AM 73.4 °F - 64.4 °F 73% 29.92 in 5.6 mi Variable 2.3 mph - N/A   Partly Cloudy
9:00 AM 75.2 °F - 64.4 °F 69% 29.92 in 5.6 mi Variable 1.2 mph - N/A   Partly Cloudy
9:30 AM 77.0 °F - 64.4 °F 65% 29.92 in 5.6 mi Variable 2.3 mph - N/A   Partly Cloudy
10:00 AM 78.8 °F - 64.4 °F 61% 29.92 in 6.2 mi Variable 2.3 mph - N/A   Partly Cloudy
11:30 AM 82.4 °F 83.9 °F 64.4 °F 54% 29.89 in 6.2 mi Variable 2.3 mph - N/A   Partly Cloudy
12:00 PM 82.4 °F 84.6 °F 66.2 °F 58% 29.89 in 6.2 mi ENE 4.6 mph - N/A   Partly Cloudy
12:30 PM 84.2 °F 86.6 °F 66.2 °F 55% 29.86 in 6.2 mi Variable 3.5 mph - N/A   Partly Cloudy
1:00 PM 84.2 °F 85.6 °F 64.4 °F 51% 29.83 in 6.2 mi Variable 3.5 mph - N/A   Partly Cloudy
1:30 PM 84.2 °F 85.6 °F 64.4 °F 51% 29.83 in 6.2 mi NNW 4.6 mph - N/A   Scattered Clouds
2:00 PM 84.2 °F 85.6 °F 64.4 °F 51% 29.80 in 6.2 mi Variable 2.3 mph - N/A   Scattered Clouds
2:30 PM 84.2 °F 85.6 °F 64.4 °F 51% 29.80 in 6.2 mi Variable 3.5 mph - N/A   Scattered Clouds
3:00 PM 84.2 °F 85.6 °F 64.4 °F 51% 29.80 in 6.2 mi North 5.8 mph - N/A   Scattered Clouds
3:30 PM 84.2 °F 85.6 °F 64.4 °F 51% 29.80 in 6.2 mi NNE 3.5 mph - N/A   Scattered Clouds
4:00 PM 84.2 °F 85.6 °F 64.4 °F 51% 29.80 in 6.2 mi North 5.8 mph 19.6 mph N/A   Scattered Clouds
4:30 PM 84.2 °F 86.6 °F 66.2 °F 55% 29.80 in 6.2 mi NNE 6.9 mph - N/A   Scattered Clouds
5:00 PM 82.4 °F 84.6 °F 66.2 °F 58% 29.80 in 6.2 mi Variable 3.5 mph - N/A   Scattered Clouds
5:30 PM 82.4 °F 85.4 °F 68.0 °F 62% 29.80 in 6.2 mi Variable 3.5 mph - N/A   Scattered Clouds
6:00 PM 80.6 °F 83.9 °F 69.8 °F 70% 29.80 in 5.6 mi Variable 1.2 mph - N/A   Partly Cloudy
6:30 PM 80.6 °F 83.9 °F 69.8 °F 70% 29.83 in 5.6 mi North 2.3 mph - N/A   Clear
7:00 PM 78.8 °F - 69.8 °F 74% 29.83 in 5.6 mi NNW 2.3 mph - N/A   Unknown
7:30 PM 78.8 °F - 69.8 °F 74% 29.86 in 5.6 mi NNW 2.3 mph - N/A   Unknown
8:00 PM 78.8 °F - 69.8 °F 74% 29.86 in 5.6 mi North 2.3 mph - N/A   Unknown
8:30 PM 77.0 °F - 69.8 °F 78% 29.86 in 5.6 mi NW 1.2 mph - N/A   Unknown
9:00 PM 78.8 °F - 69.8 °F 74% 29.86 in 5.6 mi NNW 1.2 mph - N/A   Unknown
10:00 PM 75.2 °F - 71.6 °F 89% 29.86 in 5.6 mi WSW 2.3 mph - N/A   Unknown
10:30 PM 75.2 °F - 69.8 °F 83% 29.86 in 5.6 mi NW 2.3 mph - N/A   Unknown
11:00 PM 75.2 °F - 69.8 °F 83% 29.86 in 5.6 mi NW 2.3 mph - N/A   Unknown
11:30 PM 75.2 °F - 69.8 °F 83% 29.86 in 5.6 mi North 5.8 mph - N/A   Unknown